| time (UTC) | temp F | wind direction | speed MPH | gust MPH | rain 1hr in | rain 24hr in | rain mn in | humidity % | barometer mb |
| 20260506062505 | 51 | 0 | 0.0 | 0.0 | 0.00 | 0.03 | 0.01 | 94 | 1017.5 |
| 20260506062005 | 51 | 0 | 0.0 | 0.0 | 0.00 | 0.03 | 0.01 | 94 | 1017.5 |
| 20260506061505 | 51 | 0 | 0.0 | 0.0 | 0.00 | 0.03 | 0.01 | 94 | 1017.4 |
| 20260506061004 | 51 | 0 | 0.0 | 0.0 | 0.00 | 0.03 | 0.01 | 94 | 1017.4 |
| 20260506060525 | 51 | 0 | 0.0 | 0.0 | 0.00 | 0.03 | 0.01 | 94 | 1017.4 |
| 20260506051004 | 51 | 187 | 0.0 | 1.0 | 0.00 | 0.06 | 0.01 | 93 | 1016.8 |
| 20260506050504 | 51 | 187 | 0.0 | 1.0 | 0.00 | 0.06 | 0.01 | 92 | 1016.9 |
| 20260506045005 | 52 | 0 | 0.0 | 0.0 | 0.00 | 0.06 | 0.01 | 93 | 1016.9 |
| 20260506044504 | 52 | 0 | 0.0 | 0.0 | 0.00 | 0.06 | 0.01 | 93 | 1016.8 |
| 20260506044005 | 52 | 0 | 0.0 | 0.0 | 0.00 | 0.06 | 0.01 | 93 | 1016.8 |
| 20260506043525 | 52 | 0 | 0.0 | 0.0 | 0.00 | 0.06 | 0.01 | 93 | 1016.8 |
| 20260506043004 | 52 | 0 | 0.0 | 0.0 | 0.00 | 0.06 | 0.01 | 93 | 1016.7 |
| 20260506042504 | 52 | 0 | 0.0 | 0.0 | 0.00 | 0.06 | 0.01 | 93 | 1016.7 |
| 20260506042004 | 52 | 0 | 0.0 | 0.0 | 0.00 | 0.06 | 0.01 | 93 | 1016.7 |
| 20260506041504 | 52 | 0 | 0.0 | 0.0 | 0.00 | 0.06 | 0.01 | 93 | 1016.6 |
| 20260506041025 | 52 | 0 | 0.0 | 0.0 | 0.00 | 0.06 | 0.01 | 92 | 1016.6 |
| 20260506040526 | 52 | 0 | 0.0 | 0.0 | 0.00 | 0.06 | 0.01 | 92 | 1016.6 |
| 20260506040025 | 52 | 0 | 0.0 | 0.0 | 0.00 | 0.07 | 0.01 | 92 | 1016.5 |
| 20260506035504 | 52 | 0 | 0.0 | 0.0 | 0.00 | 0.07 | 0.01 | 92 | 1016.4 |
| 20260506035004 | 52 | 0 | 0.0 | 0.0 | 0.00 | 0.09 | 0.01 | 92 | 1016.4 |
| 20260506034504 | 52 | 0 | 0.0 | 0.0 | 0.00 | 0.09 | 0.01 | 92 | 1016.3 |
| 20260506034005 | 52 | 0 | 0.0 | 0.0 | 0.00 | 0.10 | 0.01 | 92 | 1016.2 |
| 20260506033504 | 52 | 0 | 0.0 | 0.0 | 0.00 | 0.10 | 0.01 | 92 | 1016.0 |
| 20260506033005 | 52 | 0 | 0.0 | 0.0 | 0.00 | 0.11 | 0.01 | 92 | 1015.9 |
| 20260506032504 | 52 | 0 | 0.0 | 0.0 | 0.00 | 0.11 | 0.01 | 92 | 1015.8 |
| 20260506032004 | 52 | 0 | 0.0 | 0.0 | 0.00 | 0.14 | 0.01 | 92 | 1015.8 |
| 20260506031505 | 52 | 0 | 0.0 | 0.0 | 0.00 | 0.17 | 0.01 | 92 | 1015.8 |
| 20260506031004 | 52 | 0 | 0.0 | 0.0 | 0.00 | 0.18 | 0.01 | 91 | 1015.5 |
| 20260506030505 | 52 | 188 | 0.0 | 1.0 | 0.00 | 0.20 | 0.01 | 92 | 1015.5 |
| 20260506030005 | 52 | 187 | 0.0 | 1.0 | 0.00 | 0.21 | 0.01 | 92 | 1015.5 |
| 20260506025504 | 53 | 187 | 0.0 | 1.0 | 0.00 | 0.23 | 0.01 | 91 | 1015.7 |
| 20260506025004 | 53 | 0 | 0.0 | 0.0 | 0.00 | 0.24 | 0.01 | 91 | 1015.8 |
| 20260506024504 | 53 | 0 | 0.0 | 0.0 | 0.00 | 0.26 | 0.01 | 91 | 1015.6 |
| 20260506024005 | 53 | 0 | 0.0 | 0.0 | 0.00 | 0.26 | 0.01 | 91 | 1015.5 |
| 20260506023504 | 53 | 0 | 0.0 | 0.0 | 0.00 | 0.27 | 0.01 | 91 | 1015.6 |
| 20260506023004 | 53 | 0 | 0.0 | 0.0 | 0.00 | 0.28 | 0.01 | 91 | 1015.5 |
| 20260506022504 | 53 | 0 | 0.0 | 0.0 | 0.00 | 0.30 | 0.01 | 90 | 1015.3 |
| 20260506022004 | 53 | 0 | 0.0 | 0.0 | 0.00 | 0.31 | 0.01 | 90 | 1015.3 |
| 20260506021505 | 53 | 0 | 0.0 | 0.0 | 0.00 | 0.34 | 0.01 | 90 | 1015.2 |
| 20260506021004 | 53 | 0 | 0.0 | 0.0 | 0.00 | 0.36 | 0.01 | 90 | 1015.2 |
| 20260506020504 | 53 | 0 | 0.0 | 0.0 | 0.00 | 0.37 | 0.01 | 90 | 1015.0 |
| 20260506020004 | 53 | 187 | 0.0 | 1.0 | 0.00 | 0.38 | 0.01 | 89 | 1014.8 |
| 20260506015504 | 53 | 187 | 0.0 | 1.0 | 0.00 | 0.38 | 0.01 | 89 | 1014.7 |
| 20260506015004 | 53 | 187 | 0.0 | 1.0 | 0.00 | 0.40 | 0.01 | 88 | 1014.9 |
| 20260506014504 | 54 | 194 | 0.0 | 2.0 | 0.00 | 0.40 | 0.01 | 88 | 1015.0 |
| 20260506014004 | 54 | 194 | 0.0 | 2.0 | 0.00 | 0.40 | 0.01 | 88 | 1014.9 |
| 20260506013504 | 54 | 0 | 0.0 | 0.0 | 0.00 | 0.40 | 0.01 | 89 | 1014.7 |
| 20260506013004 | 54 | 0 | 0.0 | 0.0 | 0.00 | 0.40 | 0.01 | 89 | 1014.7 |
| 20260506012525 | 54 | 202 | 0.0 | 1.0 | 0.00 | 0.40 | 0.01 | 89 | 1014.7 |
| 20260506012004 | 54 | 176 | 0.0 | 1.0 | 0.00 | 0.40 | 0.01 | 88 | 1014.8 |
| 20260506011505 | 54 | 32 | 0.0 | 2.0 | 0.00 | 0.40 | 0.01 | 89 | 1014.8 |
| 20260506011004 | 54 | 20 | 0.0 | 2.0 | 0.00 | 0.41 | 0.01 | 89 | 1014.7 |
| 20260506010504 | 53 | 287 | 0.0 | 3.0 | 0.00 | 0.43 | 0.01 | 90 | 1014.7 |
| 20260506010004 | 53 | 197 | 0.0 | 3.0 | 0.00 | 0.44 | 0.01 | 89 | 1014.6 |
| 20260506005504 | 53 | 160 | 0.0 | 2.0 | 0.00 | 0.44 | 0.01 | 88 | 1014.7 |
| 20260506005004 | 53 | 168 | 0.0 | 1.0 | 0.00 | 0.47 | 0.01 | 89 | 1014.7 |
| 20260506004504 | 53 | 163 | 0.0 | 1.0 | 0.00 | 0.48 | 0.01 | 90 | 1014.7 |
| 20260506004025 | 53 | 163 | 0.0 | 1.0 | 0.00 | 0.51 | 0.01 | 89 | 1014.7 |
| 20260506003504 | 53 | 124 | 0.0 | 1.0 | 0.00 | 0.53 | 0.01 | 91 | 1014.5 |
| 20260506003004 | 53 | 124 | 0.0 | 1.0 | 0.00 | 0.54 | 0.01 | 91 | 1014.3 |
| 20260506002504 | 53 | 0 | 0.0 | 0.0 | 0.00 | 0.54 | 0.01 | 90 | 1014.5 |
| 20260506002025 | 53 | 134 | 0.0 | 1.0 | 0.00 | 0.55 | 0.01 | 91 | 1014.6 |
| 20260506001504 | 52 | 64 | 0.0 | 2.0 | 0.00 | 0.57 | 0.01 | 91 | 1014.7 |
| 20260506001004 | 52 | 58 | 0.0 | 2.0 | 0.00 | 0.58 | 0.01 | 92 | 1014.6 |
| 20260506000525 | 52 | 22 | 0.0 | 1.0 | 0.00 | 0.61 | 0.01 | 91 | 1014.6 |
| 20260506000004 | 52 | 354 | 0.0 | 1.0 | 0.00 | 0.62 | 0.01 | 91 | 1014.5 |
| 20260505235504 | 52 | 339 | 0.0 | 1.0 | 0.00 | 0.64 | 0.01 | 90 | 1014.5 |
| 20260505235004 | 52 | 333 | 0.0 | 1.0 | 0.00 | 0.64 | 0.01 | 91 | 1014.6 |
| 20260505234504 | 52 | 332 | 0.0 | 2.0 | 0.00 | 0.65 | 0.01 | 91 | 1014.6 |
| 20260505234004 | 52 | 339 | 1.0 | 3.0 | 0.00 | 0.65 | 0.01 | 91 | 1014.5 |
| 20260505233504 | 52 | 341 | 1.0 | 4.0 | 0.00 | 0.65 | 0.01 | 91 | 1014.4 |
| 20260505233004 | 52 | 335 | 1.0 | 4.0 | 0.00 | 0.67 | 0.01 | 90 | 1014.5 |
| 20260505232504 | 52 | 314 | 0.0 | 3.0 | 0.00 | 0.67 | 0.01 | 90 | 1014.4 |
| 20260505232025 | 52 | 321 | 0.0 | 3.0 | 0.00 | 0.67 | 0.01 | 90 | 1014.4 |
| 20260505231504 | 52 | 324 | 0.0 | 3.0 | 0.00 | 0.67 | 0.01 | 90 | 1014.6 |
| 20260505231004 | 52 | 319 | 0.0 | 3.0 | 0.00 | 0.67 | 0.01 | 91 | 1014.7 |
| 20260505230504 | 52 | 325 | 0.0 | 2.0 | 0.00 | 0.67 | 0.01 | 90 | 1014.6 |
| 20260505230004 | 52 | 333 | 0.0 | 2.0 | 0.00 | 0.67 | 0.01 | 90 | 1014.7 |
| 20260505225504 | 52 | 316 | 0.0 | 2.0 | 0.00 | 0.67 | 0.01 | 90 | 1014.7 |
| 20260505225004 | 52 | 300 | 0.0 | 3.0 | 0.00 | 0.67 | 0.01 | 89 | 1014.6 |
| 20260505224504 | 52 | 297 | 0.0 | 3.0 | 0.00 | 0.67 | 0.01 | 90 | 1014.6 |
| 20260505224004 | 52 | 272 | 1.0 | 3.0 | 0.00 | 0.67 | 0.01 | 89 | 1014.6 |
| 20260505223504 | 52 | 280 | 1.0 | 3.0 | 0.00 | 0.67 | 0.01 | 88 | 1014.6 |
| 20260505223004 | 52 | 322 | 0.0 | 3.0 | 0.00 | 0.67 | 0.01 | 89 | 1014.7 |
| 20260505222525 | 53 | 315 | 1.0 | 3.0 | 0.00 | 0.67 | 0.01 | 88 | 1014.7 |
| 20260505222004 | 53 | 301 | 0.0 | 3.0 | 0.00 | 0.67 | 0.01 | 89 | 1014.7 |
| 20260505221504 | 53 | 241 | 0.0 | 1.0 | 0.00 | 0.67 | 0.01 | 89 | 1014.7 |
| 20260505221004 | 53 | 0 | 0.0 | 0.0 | 0.00 | 0.67 | 0.01 | 89 | 1014.6 |
| 20260505220504 | 52 | 301 | 0.0 | 1.0 | 0.00 | 0.67 | 0.01 | 89 | 1014.6 |
| 20260505220004 | 52 | 303 | 1.0 | 4.0 | 0.00 | 0.67 | 0.01 | 89 | 1014.7 |
| 20260505215504 | 52 | 308 | 1.0 | 4.0 | 0.00 | 0.67 | 0.01 | 88 | 1014.7 |
| 20260505215004 | 52 | 310 | 0.0 | 2.0 | 0.00 | 0.67 | 0.01 | 90 | 1014.8 |
| 20260505214525 | 52 | 319 | 1.0 | 3.0 | 0.00 | 0.67 | 0.01 | 90 | 1014.7 |
| 20260505214025 | 52 | 301 | 1.0 | 3.0 | 0.00 | 0.67 | 0.01 | 89 | 1014.7 |
| 20260505213504 | 52 | 301 | 1.0 | 3.0 | 0.00 | 0.67 | 0.01 | 88 | 1014.7 |
| 20260505213004 | 52 | 303 | 1.0 | 3.0 | 0.00 | 0.67 | 0.01 | 89 | 1014.8 |
| 20260505212504 | 52 | 291 | 1.0 | 3.0 | 0.00 | 0.67 | 0.01 | 89 | 1014.9 |
| 20260505212004 | 53 | 353 | 0.0 | 3.0 | 0.00 | 0.67 | 0.01 | 89 | 1014.9 |
| 20260505211504 | 53 | 319 | 1.0 | 3.0 | 0.00 | 0.67 | 0.01 | 89 | 1014.8 |
| 20260505211004 | 53 | 310 | 1.0 | 3.0 | 0.00 | 0.67 | 0.01 | 89 | 1014.8 |
| 20260505210504 | 53 | 295 | 1.0 | 4.0 | 0.00 | 0.67 | 0.01 | 88 | 1014.8 |
| 20260505210025 | 53 | 298 | 1.0 | 4.0 | 0.00 | 0.67 | 0.01 | 88 | 1014.7 |
| 20260505205504 | 53 | 331 | 1.0 | 4.0 | 0.00 | 0.67 | 0.01 | 87 | 1014.7 |
| 20260505205004 | 53 | 345 | 1.0 | 3.0 | 0.00 | 0.67 | 0.01 | 89 | 1014.7 |
| 20260505204504 | 53 | 332 | 1.0 | 5.0 | 0.00 | 0.67 | 0.01 | 89 | 1014.6 |
| 20260505204004 | 53 | 317 | 1.0 | 5.0 | 0.00 | 0.67 | 0.01 | 88 | 1014.6 |
| 20260505203504 | 53 | 289 | 1.0 | 4.0 | 0.00 | 0.67 | 0.01 | 87 | 1014.6 |
| 20260505203004 | 53 | 278 | 2.0 | 4.0 | 0.00 | 0.67 | 0.01 | 88 | 1014.6 |
| 20260505202504 | 53 | 282 | 1.0 | 4.0 | 0.00 | 0.67 | 0.01 | 87 | 1014.6 |
| 20260505202004 | 52 | 309 | 1.0 | 3.0 | 0.00 | 0.67 | 0.01 | 88 | 1014.6 |
| 20260505201504 | 52 | 315 | 1.0 | 3.0 | 0.00 | 0.67 | 0.01 | 87 | 1014.6 |
| 20260505201004 | 52 | 337 | 1.0 | 4.0 | 0.00 | 0.67 | 0.01 | 89 | 1014.7 |
| 20260505200504 | 52 | 335 | 1.0 | 4.0 | 0.00 | 0.67 | 0.01 | 89 | 1014.7 |
| 20260505200004 | 52 | 331 | 1.0 | 3.0 | 0.00 | 0.67 | 0.01 | 90 | 1014.7 |
| 20260505195525 | 52 | 318 | 1.0 | 4.0 | 0.00 | 0.67 | 0.01 | 88 | 1014.7 |
| 20260505195025 | 52 | 290 | 1.0 | 4.0 | 0.00 | 0.67 | 0.01 | 89 | 1014.8 |
| 20260505194504 | 52 | 278 | 0.0 | 3.0 | 0.00 | 0.68 | 0.01 | 90 | 1014.7 |
| 20260505194004 | 52 | 308 | 0.0 | 2.0 | 0.00 | 0.68 | 0.01 | 90 | 1014.7 |
| 20260505193504 | 52 | 322 | 0.0 | 2.0 | 0.00 | 0.68 | 0.01 | 90 | 1014.7 |
| 20260505193025 | 52 | 321 | 0.0 | 3.0 | 0.00 | 0.68 | 0.01 | 90 | 1014.7 |
| 20260505192504 | 52 | 326 | 0.0 | 3.0 | 0.00 | 0.68 | 0.01 | 90 | 1014.7 |
| 20260505192025 | 52 | 332 | 0.0 | 2.0 | 0.00 | 0.68 | 0.01 | 90 | 1014.7 |
| 20260505191503 | 52 | 314 | 0.0 | 3.0 | 0.00 | 0.68 | 0.01 | 91 | 1014.7 |
| 20260505191004 | 52 | 327 | 0.0 | 3.0 | 0.00 | 0.68 | 0.01 | 89 | 1014.6 |
| 20260505190504 | 52 | 335 | 0.0 | 1.0 | 0.00 | 0.70 | 0.01 | 90 | 1014.6 |
| 20260505190004 | 51 | 335 | 1.0 | 3.0 | 0.00 | 0.71 | 0.01 | 90 | 1014.5 |
| 20260505185525 | 51 | 332 | 1.0 | 3.0 | 0.00 | 0.72 | 0.01 | 90 | 1014.4 |
| 20260505185004 | 51 | 316 | 0.0 | 2.0 | 0.00 | 0.74 | 0.01 | 91 | 1014.5 |
| 20260505184504 | 51 | 307 | 1.0 | 3.0 | 0.00 | 0.75 | 0.01 | 90 | 1014.5 |
| 20260505184004 | 50 | 285 | 1.0 | 4.0 | 0.00 | 0.77 | 0.01 | 91 | 1014.6 |
| 20260505183504 | 50 | 268 | 1.0 | 4.0 | 0.00 | 0.77 | 0.01 | 91 | 1014.5 |
| 20260505183003 | 50 | 271 | 1.0 | 7.0 | 0.00 | 0.77 | 0.01 | 92 | 1014.5 |
| 20260505182505 | 50 | 270 | 2.0 | 8.0 | 0.00 | 0.77 | 0.01 | 91 | 1014.5 |
| 20260505182004 | 50 | 270 | 2.0 | 8.0 | 0.00 | 0.78 | 0.01 | 90 | 1014.4 |
| 20260505181503 | 50 | 264 | 1.0 | 3.0 | 0.00 | 0.78 | 0.01 | 90 | 1014.4 |
| 20260505181004 | 50 | 266 | 1.0 | 3.0 | 0.00 | 0.80 | 0.01 | 90 | 1014.4 |
| 20260505180525 | 50 | 295 | 0.0 | 2.0 | 0.00 | 0.82 | 0.01 | 91 | 1014.4 |
| 20260505180004 | 50 | 308 | 0.0 | 2.0 | 0.00 | 0.82 | 0.01 | 91 | 1014.4 |
| 20260505175503 | 50 | 313 | 0.0 | 2.0 | 0.00 | 0.82 | 0.01 | 91 | 1014.4 |
| 20260505175004 | 50 | 312 | 0.0 | 3.0 | 0.00 | 0.82 | 0.01 | 90 | 1014.4 |
| 20260505174504 | 50 | 306 | 0.0 | 3.0 | 0.00 | 0.82 | 0.01 | 92 | 1014.4 |
| 20260505174003 | 50 | 296 | 0.0 | 1.0 | 0.00 | 0.82 | 0.01 | 92 | 1014.4 |
| 20260505173525 | 50 | 303 | 0.0 | 1.0 | 0.00 | 0.82 | 0.01 | 92 | 1014.4 |
| 20260505173025 | 50 | 319 | 0.0 | 2.0 | 0.00 | 0.82 | 0.01 | 92 | 1014.3 |
| 20260505172525 | 50 | 314 | 0.0 | 2.0 | 0.00 | 0.82 | 0.01 | 92 | 1014.3 |
| 20260505172004 | 50 | 289 | 0.0 | 1.0 | 0.00 | 0.82 | 0.01 | 91 | 1014.3 |
| 20260505171504 | 50 | 288 | 0.0 | 1.0 | 0.00 | 0.82 | 0.01 | 91 | 1014.3 |
| 20260505171004 | 49 | 300 | 0.0 | 2.0 | 0.00 | 0.82 | 0.01 | 93 | 1014.3 |
| 20260505170504 | 49 | 301 | 0.0 | 2.0 | 0.00 | 0.82 | 0.01 | 91 | 1014.3 |
| 20260505170004 | 49 | 272 | 1.0 | 3.0 | 0.00 | 0.82 | 0.01 | 93 | 1014.3 |
| 20260505165504 | 49 | 277 | 1.0 | 4.0 | 0.00 | 0.82 | 0.01 | 93 | 1014.3 |
| 20260505165025 | 49 | 287 | 1.0 | 4.0 | 0.00 | 0.82 | 0.01 | 92 | 1014.2 |
| 20260505164503 | 49 | 287 | 1.0 | 3.0 | 0.00 | 0.82 | 0.01 | 93 | 1014.2 |
| 20260505164004 | 49 | 278 | 2.0 | 4.0 | 0.00 | 0.82 | 0.01 | 93 | 1014.2 |
| 20260505163504 | 49 | 288 | 2.0 | 5.0 | 0.00 | 0.82 | 0.01 | 92 | 1014.2 |
| 20260505163004 | 49 | 317 | 2.0 | 5.0 | 0.00 | 0.82 | 0.01 | 92 | 1014.1 |
| 20260505162504 | 49 | 334 | 1.0 | 4.0 | 0.00 | 0.82 | 0.01 | 94 | 1014.1 |
| 20260505162003 | 48 | 300 | 2.0 | 3.0 | 0.00 | 0.82 | 0.01 | 94 | 1014.0 |
| 20260505161504 | 48 | 277 | 2.0 | 3.0 | 0.00 | 0.82 | 0.01 | 93 | 1014.0 |
| 20260505161004 | 48 | 283 | 1.0 | 3.0 | 0.00 | 0.82 | 0.01 | 93 | 1014.0 |
| 20260505160525 | 48 | 292 | 1.0 | 3.0 | 0.00 | 0.82 | 0.01 | 93 | 1014.0 |
| 20260505153003 | 48 | 313 | 1.0 | 3.0 | 0.00 | 0.82 | 0.01 | 94 | 1013.9 |
| 20260505152525 | 48 | 310 | 0.0 | 3.0 | 0.00 | 0.82 | 0.01 | 94 | 1013.9 |
| 20260505152003 | 48 | 301 | 0.0 | 1.0 | 0.00 | 0.82 | 0.01 | 95 | 1013.8 |
| 20260505151504 | 47 | 306 | 0.0 | 3.0 | 0.00 | 0.82 | 0.01 | 95 | 1013.8 |
| 20260505151003 | 47 | 307 | 0.0 | 3.0 | 0.00 | 0.82 | 0.01 | 95 | 1013.7 |
| 20260505150503 | 47 | 299 | 0.0 | 2.0 | 0.00 | 0.82 | 0.01 | 95 | 1013.6 |
| 20260505140503 | 47 | 10 | 0.0 | 1.0 | 0.00 | 0.82 | 0.01 | 95 | 1013.1 |
| 20260505125003 | 47 | 0 | 0.0 | 0.0 | 0.00 | 0.82 | 0.01 | 95 | 1012.9 |
| 20260505124503 | 47 | 0 | 0.0 | 0.0 | 0.00 | 0.82 | 0.01 | 95 | 1013.0 |
| 20260505124003 | 47 | 0 | 0.0 | 0.0 | 0.00 | 0.82 | 0.01 | 95 | 1013.0 |
| 20260505123524 | 47 | 0 | 0.0 | 0.0 | 0.00 | 0.82 | 0.01 | 95 | 1012.9 |
| 20260505123003 | 47 | 0 | 0.0 | 0.0 | 0.00 | 0.82 | 0.01 | 95 | 1012.9 |
| 20260505122503 | 47 | 0 | 0.0 | 0.0 | 0.00 | 0.82 | 0.01 | 95 | 1012.9 |
| 20260505122004 | 47 | 0 | 0.0 | 0.0 | 0.00 | 0.82 | 0.01 | 95 | 1012.8 |
| 20260505121503 | 47 | 0 | 0.0 | 0.0 | 0.00 | 0.82 | 0.01 | 95 | 1012.8 |
| 20260505121024 | 46 | 0 | 0.0 | 0.0 | 0.00 | 0.82 | 0.01 | 95 | 1012.8 |
| 20260505120503 | 47 | 0 | 0.0 | 0.0 | 0.01 | 0.82 | 0.01 | 95 | 1012.8 |
| 20260505120004 | 47 | 0 | 0.0 | 0.0 | 0.01 | 0.82 | 0.01 | 95 | 1012.8 |
| 20260505115525 | 47 | 0 | 0.0 | 0.0 | 0.01 | 0.82 | 0.01 | 95 | 1012.8 |
| 20260505115003 | 47 | 0 | 0.0 | 0.0 | 0.01 | 0.82 | 0.01 | 95 | 1012.9 |
| 20260505114503 | 47 | 0 | 0.0 | 0.0 | 0.01 | 0.82 | 0.01 | 95 | 1012.9 |
| 20260505114024 | 47 | 0 | 0.0 | 0.0 | 0.01 | 0.82 | 0.01 | 95 | 1012.9 |
| 20260505113503 | 47 | 0 | 0.0 | 0.0 | 0.01 | 0.82 | 0.01 | 95 | 1012.8 |
| 20260505113004 | 46 | 0 | 0.0 | 0.0 | 0.01 | 0.82 | 0.01 | 95 | 1012.8 |
| 20260505112503 | 47 | 0 | 0.0 | 0.0 | 0.01 | 0.82 | 0.01 | 95 | 1012.9 |
| 20260505112004 | 47 | 0 | 0.0 | 0.0 | 0.01 | 0.82 | 0.01 | 95 | 1012.9 |
| 20260505111524 | 47 | 0 | 0.0 | 0.0 | 0.01 | 0.82 | 0.01 | 95 | 1012.9 |
| 20260505111003 | 46 | 0 | 0.0 | 0.0 | 0.01 | 0.82 | 0.01 | 95 | 1012.9 |
| 20260505110503 | 46 | 0 | 0.0 | 0.0 | 0.00 | 0.81 | 0.00 | 95 | 1012.9 |
| 20260505102004 | 46 | 0 | 0.0 | 0.0 | 0.00 | 0.81 | 0.00 | 95 | 1012.9 |
| 20260505101503 | 46 | 0 | 0.0 | 0.0 | 0.00 | 0.81 | 0.00 | 95 | 1012.9 |
| 20260505101003 | 46 | 0 | 0.0 | 0.0 | 0.00 | 0.81 | 0.00 | 95 | 1013.0 |
| 20260505100503 | 46 | 0 | 0.0 | 0.0 | 0.00 | 0.81 | 0.00 | 95 | 1012.9 |
| 20260505100003 | 46 | 0 | 0.0 | 0.0 | 0.00 | 0.81 | 0.00 | 95 | 1013.0 |
| 20260505095504 | 46 | 0 | 0.0 | 0.0 | 0.00 | 0.81 | 0.00 | 95 | 1013.0 |
| 20260505095003 | 46 | 0 | 0.0 | 0.0 | 0.00 | 0.81 | 0.00 | 95 | 1013.0 |
| 20260505094503 | 46 | 0 | 0.0 | 0.0 | 0.00 | 0.81 | 0.00 | 95 | 1013.1 |
| 20260505094003 | 46 | 64 | 0.0 | 1.0 | 0.00 | 0.81 | 0.00 | 95 | 1013.1 |
| 20260505093503 | 46 | 56 | 0.0 | 1.0 | 0.00 | 0.81 | 0.00 | 95 | 1013.2 |
| 20260505093004 | 46 | 53 | 0.0 | 1.0 | 0.00 | 0.81 | 0.00 | 95 | 1013.2 |
| 20260505092503 | 46 | 53 | 0.0 | 1.0 | 0.00 | 0.81 | 0.00 | 95 | 1013.3 |
| 20260505092003 | 46 | 0 | 0.0 | 0.0 | 0.00 | 0.81 | 0.00 | 95 | 1013.3 |
| 20260505091503 | 46 | 0 | 0.0 | 0.0 | 0.00 | 0.81 | 0.00 | 95 | 1013.3 |
| 20260505091003 | 46 | 0 | 0.0 | 0.0 | 0.00 | 0.81 | 0.00 | 95 | 1013.4 |
| 20260505090503 | 46 | 0 | 0.0 | 0.0 | 0.00 | 0.81 | 0.00 | 95 | 1013.5 |
| 20260505090003 | 46 | 0 | 0.0 | 0.0 | 0.00 | 0.81 | 0.00 | 95 | 1013.4 |
| 20260505085524 | 46 | 0 | 0.0 | 0.0 | 0.00 | 0.81 | 0.00 | 95 | 1013.4 |
| 20260505085003 | 46 | 0 | 0.0 | 0.0 | 0.00 | 0.81 | 0.00 | 95 | 1013.5 |
| 20260505084524 | 46 | 0 | 0.0 | 0.0 | 0.00 | 0.81 | 0.00 | 95 | 1013.5 |
| 20260505084003 | 46 | 0 | 0.0 | 0.0 | 0.00 | 0.81 | 0.00 | 95 | 1013.6 |
| 20260505083503 | 46 | 0 | 0.0 | 0.0 | 0.00 | 0.81 | 0.00 | 95 | 1013.6 |
| 20260505083005 | 46 | 0 | 0.0 | 0.0 | 0.00 | 0.81 | 0.00 | 95 | 1013.6 |
| 20260505082505 | 46 | 0 | 0.0 | 0.0 | 0.00 | 0.81 | 0.00 | 95 | 1013.6 |
| 20260505082005 | 46 | 0 | 0.0 | 0.0 | 0.00 | 0.81 | 0.00 | 95 | 1013.6 |
| 20260505081505 | 46 | 0 | 0.0 | 0.0 | 0.00 | 0.81 | 0.00 | 95 | 1013.8 |
| 20260505081004 | 46 | 0 | 0.0 | 0.0 | 0.00 | 0.81 | 0.00 | 95 | 1013.9 |
| 20260505080505 | 46 | 0 | 0.0 | 0.0 | 0.00 | 0.81 | 0.00 | 95 | 1013.9 |
| 20260505080004 | 46 | 0 | 0.0 | 0.0 | 0.00 | 0.81 | 0.00 | 95 | 1013.9 |
| 20260505075505 | 46 | 0 | 0.0 | 0.0 | 0.00 | 0.81 | 0.00 | 95 | 1013.9 |
| 20260505075025 | 46 | 0 | 0.0 | 0.0 | 0.00 | 0.81 | 0.00 | 95 | 1013.9 |
| 20260505074504 | 46 | 0 | 0.0 | 0.0 | 0.00 | 0.81 | 0.00 | 95 | 1013.9 |
| 20260505074005 | 46 | 0 | 0.0 | 0.0 | 0.01 | 0.81 | 0.00 | 95 | 1013.8 |
| 20260505073526 | 46 | 43 | 0.0 | 2.0 | 0.01 | 0.81 | 0.00 | 95 | 1013.9 |
| 20260505073005 | 46 | 44 | 0.0 | 2.0 | 0.01 | 0.81 | 0.00 | 95 | 1013.6 |
| 20260505072504 | 46 | 92 | 1.0 | 3.0 | 0.01 | 0.81 | 0.00 | 95 | 1013.4 |
| 20260505072004 | 46 | 80 | 1.0 | 3.0 | 0.01 | 0.81 | 0.00 | 95 | 1013.4 |
| 20260505071526 | 46 | 323 | 1.0 | 3.0 | 0.01 | 0.81 | 0.00 | 95 | 1013.0 |
| 20260505071005 | 46 | 310 | 1.0 | 3.0 | 0.01 | 0.81 | 0.00 | 95 | 1012.9 |
| 20260505070505 | 46 | 0 | 0.0 | 0.0 | 0.01 | 0.81 | 0.00 | 95 | 1013.7 |
| 20260505070005 | 46 | 0 | 0.0 | 0.0 | 0.01 | 0.81 | 0.00 | 95 | 1013.8 |